Location: Ladrillo (historical)
(32.8195°N, 117.2231°W)
Time: 09:48:52
(UTC+00:00)

Vanguard 1 Rocket - Visible Passes

Search period start: 01 March 2021 00:00
Search period end: 11 March 2021 00:00
Orbit: 654 x 4223 km, 34.3° (Epoch: 28 February)

Date Brightness Start Highest point End Pass type
(mag) Time Alt. Az. Time Alt. Az. Time Alt. Az.
01 Mar 11.2 07:57:37 32° E 07:57:37 32° E 08:08:23 10° ENE visible
01 Mar 10.3 10:14:50 82° SW 10:16:33 87° SSE 10:39:46 10° E visible
01 Mar 10.3 12:32:04 26° W 12:51:09 88° N 13:08:21 10° E visible
02 Mar 11.5 06:49:52 14° ENE 06:49:52 14° ENE 06:52:22 10° ENE visible
02 Mar 10.6 09:07:06 62° E 09:07:06 62° E 09:25:57 10° ENE visible
02 Mar 10.4 11:24:19 49° W 11:35:27 86° N 11:55:57 10° E visible
02 Mar 10.2 13:43:16 10° WNW 14:08:36 79° SSW 14:23:02 10° ESE visible
03 Mar 11.1 07:59:19 36° E 07:59:19 36° E 08:11:15 10° ENE visible
03 Mar 10.3 10:16:33 79° W 10:19:15 89° NNW 10:42:47 10° E visible
03 Mar 10.3 12:33:46 23° W 12:54:00 89° SSW 13:11:28 10° ESE visible
04 Mar 11.4 06:51:32 17° ENE 06:51:32 17° ENE 06:55:30 10° ENE visible
04 Mar 10.5 09:08:46 67° E 09:08:46 67° E 09:28:50 10° ENE visible
04 Mar 10.4 11:25:59 45° W 11:38:20 86° N 11:59:03 10° E visible
04 Mar 10.3 13:45:57 10° WNW 14:11:11 72° SSW 14:25:55 10° SE visible
05 Mar 11.0 05:05:56 10° S 05:43:45 - ENE 05:06:04 10° S visible
05 Mar 11.0 08:00:58 40° E 08:00:58 40° E 08:14:04 10° ENE visible
05 Mar 10.3 10:18:11 75° W 10:22:02 87° N 10:45:49 10° E visible
05 Mar 10.4 12:35:25 21° WNW 12:56:45 85° SSW 13:14:29 10° ESE visible
06 Mar 10.8 03:59:09 10° SSE 03:59:09 10° SSE 03:59:09 10° SSE visible
06 Mar 11.2 06:53:10 20° ENE 06:53:10 20° ENE 06:58:23 10° ENE visible
06 Mar 10.5 09:10:24 72° E 09:10:24 72° E 09:31:43 10° E visible
06 Mar 10.4 11:27:37 42° W 11:41:10 88° N 12:02:08 10° E visible
06 Mar 10.4 13:48:37 10° WNW 14:13:34 64° SSW 14:28:38 10° SE visible
07 Mar 10.7 05:07:35 10° SSW 05:45:23 - ENE 05:09:40 16° S visible
07 Mar 10.9 08:02:37 43° E 08:02:37 43° E 08:16:50 10° ENE visible
07 Mar 10.3 10:19:50 70° W 10:24:52 86° N 10:48:51 10° E visible
07 Mar 10.4 12:37:03 19° WNW 12:59:21 79° SSW 13:17:23 10° ESE visible
08 Mar 10.5 03:59:27 10° S 04:02:55 17° SSE 04:02:55 17° SSE visible
08 Mar 11.0 06:19:53 10° SW 06:54:50 22° ENE 07:01:09 10° ENE visible
08 Mar 10.4 09:12:03 76° ENE 09:12:03 76° ENE 09:34:39 10° E visible
08 Mar 10.4 11:29:16 39° W 11:43:55 89° SSW 12:05:09 10° ESE visible
09 Mar 10.4 05:09:37 10° SSW 05:47:04 - ENE 05:13:35 24° SSW visible
09 Mar 10.8 08:04:18 46° E 08:04:18 46° E 08:19:36 10° ENE visible
09 Mar 10.4 10:21:31 66° WNW 10:27:42 87° N 10:51:52 10° E visible
09 Mar 10.4 12:38:45 17° WNW 13:01:47 72° SSW 13:20:08 10° SE visible
10 Mar 10.2 04:00:42 10° S 04:06:58 25° SSE 04:06:58 25° SSE visible
10 Mar 10.8 06:22:32 10° SW 06:56:34 24° ENE 07:03:51 10° ENE visible
10 Mar 10.4 09:13:48 80° ENE 09:13:48 80° ENE 09:37:36 10° E visible
10 Mar 10.4 11:31:02 36° WNW 11:46:34 84° SSW 12:08:03 10° ESE visible
